This demonstration page uses our WeatherBlox Daily Observations layout. Learn more.

Hourly Observations for December 27, 2015

Temp ( °F °C ) Dew Point ( °F °C ) Humidity (%) Winds ( mph kmh ) Pressure ( in mb ) Visibility ( mi km ) Precip ( " mm )
12:15 am 00:15 Cloudy 21 -6.2 17 -8.5 84 84 N 17 28 30.59 1036 10 16.0934 0 0
12:35 am 00:35 Cloudy 21 -6.2 17 -8.5 84 84 N 18 30 30.59 1036 10 16.0934 0 0
12:55 am 00:55 Mostly Cloudy 21 -6.3 16 -8.7 83 83 N 20 31 30.59 1036 10 16.0934 0 0
1:15 am 01:15 Cloudy 21 -6.2 17 -8.6 83 83 N 17 28 30.62 1037 10 16.0934 0 0
1:35 am 01:35 Cloudy 21 -6.3 16 -8.9 82 82 N 17 28 30.59 1036 10 16.0934 0 0
1:55 am 01:55 Mostly Cloudy 20 -6.9 15 -9.4 83 83 N 18 30 30.59 1036 10 16.0934 0 0
2:15 am 02:15 Partly Cloudy 18 -7.6 14 -10.1 82 82 N 16 26 30.59 1036 10 16.0934 0 0
2:35 am 02:35 Clear 17 -8.1 13 -10.5 83 83 N 16 26 30.59 1036 10 16.0934 0 0
2:55 am 02:55 Clear 17 -8.3 13 -10.8 82 82 N 15 24 30.59 1036 10 16.0934 0 0
3:15 am 03:15 Clear 17 -8.5 12 -11.3 80 80 N 15 24 30.62 1037 10 16.0934 0 0
3:35 am 03:35 Partly Cloudy 16 -8.9 11 -11.5 82 82 N 10 17 30.65 1038 10 16.0934 0 0
3:55 am 03:55 Partly Cloudy 16 -9 11 -11.9 80 80 N 15 24 30.65 1038 10 16.0934 0 0
4:15 am 04:15 Clear 15 -9.5 10 -12.1 82 82 N 15 24 30.65 1038 10 16.0934 0 0
4:35 am 04:35 Mostly Cloudy 16 -9 11 -11.8 80 80 N 15 24 30.65 1038 10 16.0934 0 0
4:55 am 04:55 Cloudy 16 -8.7 11 -11.4 81 81 N 14 22 30.68 1039 10 16.0934 0 0
5:15 am 05:15 Cloudy 17 -8.5 13 -10.8 84 84 N 14 22 30.65 1038 10 16.0934 0 0
5:35 am 05:35 Cloudy 17 -8.3 13 -10.4 85 85 N 14 22 30.65 1038 10 16.0934 0 0
5:55 am 05:55 Cloudy 17 -8.2 14 -10.1 86 86 N 12 19 30.65 1038 10 16.0934 0 0
6:15 am 06:15 Cloudy 18 -8 14 -10 86 86 N 10 17 30.65 1038 10 16.0934 0 0
6:35 am 06:35 Partly Cloudy 17 -8.6 13 -10.8 84 84 N 15 24 30.68 1039 10 16.0934 0 0
6:55 am 06:55 Clear 15 -9.5 9 -12.7 78 78 N 13 20 30.68 1039 10 16.0934 0 0
7:15 am 07:15 Clear 14 -10.2 8 -13.5 77 77 NNW 15 24 30.68 1039 10 16.0934 0 0
7:35 am 07:35 Clear 13 -10.6 8 -13.6 79 79 N 9 15 30.71 1040 10 16.0934 0 0
7:55 am 07:55 Clear 12 -10.9 7 -13.9 79 79 N 10 17 30.71 1040 10 16.0934 0 0
8:15 am 08:15 Sunny 12 -11 7 -14 79 79 N 14 22 30.71 1040 10 16.0934 0 0
8:35 am 08:35 Sunny 13 -10.8 7 -14 78 78 N 13 20 30.65 1038 10 16.0934 0 0
8:55 am 08:55 Sunny 14 -10.2 7 -14 74 74 N 14 22 30.65 1038 10 16.0934 0 0
9:15 am 09:15 Sunny 13 -10.3 6 -14.2 73 73 N 13 20 30.65 1038 10 16.0934 0 0
9:35 am 09:35 Sunny 15 -9.6 7 -14 71 71 N 17 28 30.68 1039 10 16.0934 0 0
9:55 am 09:55 Sunny 16 -9 7 -13.9 68 68 N 18 30 30.65 1038 10 16.0934 0 0
10:15 am 10:15 Sunny 17 -8.3 8 -13.5 66 66 N 21 33 30.62 1037 10 16.0934 0 0
10:35 am 10:35 Sunny 18 -7.8 8 -13.3 65 65 N 20 31 30.65 1038 10 16.0934 0 0
10:55 am 10:55 Sunny 19 -7.4 8 -13.3 63 63 N 17 28 30.65 1038 10 16.0934 0 0
11:15 am 11:15 Sunny 20 -6.9 8 -13.1 62 62 N 15 24 30.65 1038 10 16.0934 0 0
11:35 am 11:35 Sunny 21 -6.3 9 -12.8 60 60 NNE 17 28 30.65 1038 10 16.0934 0 0
11:55 am 11:55 Sunny 21 -5.9 10 -12.5 60 60 N 17 28 30.65 1038 10 16.0934 0 0
12:15 pm 12:15 Sunny 23 -5.2 10 -12 59 59 NNE 15 24 30.62 1037 10 16.0934 0 0
12:35 pm 12:35 Sunny 23 -5 11 -11.7 60 60 NNE 13 20 30.62 1037 10 16.0934 0 0
12:55 pm 12:55 Sunny 24 -4.6 11 -11.8 58 58 NNE 14 22 30.59 1036 10 16.0934 0 0
1:15 pm 13:15 Sunny 24 -4.3 11 -11.6 57 57 NNE 13 20 30.59 1036 10 16.0934 0 0
1:35 pm 13:35 Sunny 24 -4.6 12 -11.2 60 60 NNE 14 22 30.56 1035 10 16.0934 0 0
1:55 pm 13:55 Sunny 24 -4.6 12 -11.1 61 61 NNE 16 26 30.53 1034 10 16.0934 0 0
2:15 pm 14:15 Sunny 24 -4.5 13 -10.8 62 62 N 14 22 30.53 1034 10 16.0934 0 0
2:35 pm 14:35 Sunny 24 -4.6 13 -10.6 63 63 N 14 22 30.53 1034 10 16.0934 0 0
2:55 pm 14:55 Sunny 23 -5 13 -10.8 64 64 N 15 24 30.53 1034 10 16.0934 0 0
3:15 pm 15:15 Sunny 23 -5.1 12 -10.9 64 64 NNE 17 28 30.53 1034 10 16.0934 0 0
3:35 pm 15:35 Sunny 22 -5.3 13 -10.7 66 66 N 15 24 30.53 1034 10 16.0934 0 0
3:55 pm 15:55 Sunny 22 -5.6 11 -11.4 64 64 N 16 26 30.5 1033 10 16.0934 0 0
4:15 pm 16:15 Sunny 22 -5.8 12 -11.3 66 66 N 15 24 30.5 1033 10 16.0934 0 0
4:35 pm 16:35 Sunny 21 -6 11 -11.5 65 65 N 14 22 30.5 1033 10 16.0934 0 0
4:55 pm 16:55 Sunny 21 -6.2 12 -11 69 69 N 12 19 30.5 1033 10 16.0934 0 0
5:15 pm 17:15 Sunny 20 -6.6 12 -11 71 71 N 10 17 30.53 1034 10 16.0934 0 0
5:35 pm 17:35 Clear 19 -7 12 -11 73 73 N 9 15 30.53 1034 10 16.0934 0 0
5:55 pm 17:55 Clear 19 -7.4 12 -11.3 74 74 N 8 13 30.53 1034 10 16.0934 0 0
6:15 pm 18:15 Clear 19 -7.5 11 -11.5 73 73 N 9 15 30.53 1034 10 16.0934 0 0
6:35 pm 18:35 Clear 17 -8.1 11 -11.4 77 77 N 7 11 30.53 1034 10 16.0934 0 0
6:55 pm 18:55 Clear 17 -8.2 11 -11.4 78 78 N 8 13 30.53 1034 10 16.0934 0 0
7:15 pm 19:15 Clear 17 -8.5 12 -11.2 81 81 N 6 9 30.53 1034 10 16.0934 0 0
7:35 pm 19:35 Clear 17 -8.3 12 -11.2 80 80 NNE 8 13 30.53 1034 10 16.0934 0 0
7:55 pm 19:55 Clear 17 -8.5 12 -11.2 81 81 N 8 13 30.53 1034 10 16.0934 0 0
8:15 pm 20:15 Clear 17 -8.5 12 -11.2 81 81 N 9 15 30.53 1034 10 16.0934 0 0
8:35 pm 20:35 Clear 17 -8.3 12 -11.2 80 80 N 10 17 30.5 1033 10 16.0934 0 0
8:55 pm 20:55 Clear 17 -8.3 12 -11.2 80 80 N 10 17 30.5 1033 10 16.0934 0 0
9:15 pm 21:15 Clear 17 -8.3 12 -11.3 79 79 N 12 19 30.5 1033 10 16.0934 0 0
9:35 pm 21:35 Clear 17 -8.3 12 -11.3 79 79 NNE 12 19 30.5 1033 10 16.0934 0 0
9:55 pm 21:55 Clear 17 -8.4 11 -11.5 79 79 NNE 13 20 30.48 1032 10 16.0934 0 0
10:15 pm 22:15 Clear 17 -8.6 11 -11.6 79 79 NNE 10 17 30.48 1032 10 16.0934 0 0
10:35 pm 22:35 Clear 16 -8.8 11 -11.7 80 80 N 9 15 30.48 1032 10 16.0934 0 0
10:55 pm 22:55 Clear 16 -9 11 -11.7 81 81 NNE 13 20 30.45 1031 10 16.0934 0 0
11:15 pm 23:15 Clear 16 -9 11 -11.8 80 80 N 12 19 30.45 1031 10 16.0934 0 0
11:35 pm 23:35 Clear 16 -9 11 -11.7 81 81 N 13 20 30.45 1031 10 16.0934 0 0
11:55 pm 23:55 Clear 16 -9.1 11 -11.8 81 81 N 10 17 30.45 1031 10 16.0934 0 0

Powered by AerisWeather